Temp
-18 -17 -17 -17 -17 -16 -15 -14 -14 -14 -14 -13 -13 -12 -12 -13 -12 -12 -12 -12 -12 -12 -12 -12 -12 -12 -12 -12 -12 -12 -11 -11 -11 -10 -11 -10 -10 -10 -10 -9 -10 -9 -9 -9 -9
-19 -18 -17 -18 -17 -17 -16 -15 -15 -14 -14 -14 -13 -14 -12 -13 -13 -13 -12 -12 -12 -12 -12 -12 -13 -12 -12 -12 -12 -12 -12 -12 -11 -10 -11 -11 -10 -10 -10 -9 -9 -9 -9 -9 -9
-19 -19 -18 -18 -18 -17 -17 -16 -15 -15 -15 -14 -14 -14 -14 -13 -13 -12 -13 -12 -12 -12 -12 -12 -13 -12 -13 -12 -12 -12 -11 -11 -12 -10 -10 -11 -11 -10 -10 -10 -10 -10 -10 -9 -9
-19 -19 -19 -18 -18 -18 -17 -17 -16 -16 -15 -15 -15 -14 -14 -14 -14 -13 -13 -14 -13 -13 -13 -13 -13 -13 -13 -13 -12 -12 -11 -11 -12 -11 -10 -10 -11 -10 -10 -10 -10 -10 -10 -9 -9
-19 -19 -19 -19 -19 -19 -18 -18 -17 -17 -16 -15 -15 -15 -14 -14 -13 -14 -14 -15 -15 -13 -13 -13 -13 -13 -13 -13 -13 -12 -12 -12 -12 -11 -11 -10 -10 -10 -10 -10 -10 -10 -10 -9 -9
-20 -20 -19 -19 -19 -20 -18 -18 -18 -18 -18 -17 -16 -15 -15 -14 -14 -14 -14 -14 -14 -14 -14 -13 -13 -13 -13 -13 -13 -13 -12 -12 -12 -12 -11 -11 -11 -10 -10 -10 -10 -10 -10 -10 -9
-20 -20 -20 -20 -20 -20 -20 -19 -18 -19 -18 -17 -17 -16 -15 -15 -14 -15 -15 -14 -14 -14 -14 -13 -13 -13 -13 -13 -12 -13 -13 -12 -12 -12 -11 -11 -11 -11 -11 -10 -10 -10 -10 -10 -10
-21 -20 -20 -20 -20 -19 -20 -19 -19 -19 -18 -19 -17 -16 -15 -15 -15 -15 -14 -15 -15 -14 -14 -14 -14 -13 -13 -13 -12 -13 -13 -12 -12 -12 -12 -12 -11 -11 -11 -10 -10 -10 -10 -9 -10
-22 -21 -20 -20 -20 -20 -20 -20 -20 -19 -19 -18 -17 -17 -17 -16 -15 -15 -15 -15 -15 -15 -15 -14 -14 -14 -13 -13 -13 -12 -12 -12 -13 -13 -12 -12 -11 -12 -11 -11 -10 -10 -10 -10 -10
-23 -22 -21 -21 -21 -21 -21 -21 -19 -20 -20 -20 -19 -18 -16 -16 -16 -15 -15 -16 -16 -15 -15 -15 -14 -13 -13 -13 -12 -13 -13 -13 -13 -13 -13 -12 -11 -12 -12 -11 -10 -10 -10 -10 -10
-23 -23 -22 -21 -21 -21 -21 -21 -20 -20 -21 -20 -18 -18 -17 -17 -16 -16 -16 -16 -17 -16 -15 -15 -15 -13 -14 -15 -14 -14 -13 -13 -13 -13 -13 -12 -12 -12 -12 -11 -11 -11 -10 -10 -10
-24 -23 -23 -23 -22 -22 -21 -21 -21 -20 -20 -20 -18 -18 -18 -17 -17 -17 -17 -16 -16 -15 -16 -16 -14 -15 -16 -15 -15 -14 -13 -13 -13 -13 -13 -12 -12 -11 -11 -11 -11 -10 -10 -10 -10
-24 -24 -23 -23 -23 -23 -22 -21 -21 -20 -20 -19 -20 -19 -19 -18 -18 -17 -17 -17 -17 -17 -16 -16 -16 -16 -16 -16 -15 -14 -14 -14 -14 -13 -13 -12 -11 -11 -12 -11 -11 -10 -10 -10 -10
-25 -25 -24 -23 -24 -23 -23 -22 -22 -21 -21 -20 -20 -19 -19 -18 -18 -18 -18 -18 -17 -17 -17 -16 -16 -16 -16 -16 -16 -15 -15 -14 -14 -14 -13 -13 -10 -11 -11 -11 -10 -11 -11 -11 -11
-25 -25 -25 -24 -24 -23 -23 -22 -22 -22 -21 -20 -20 -20 -19 -19 -18 -18 -18 -17 -17 -17 -17 -16 -17 -16 -16 -16 -16 -16 -15 -15 -15 -14 -14 -13 -12 -9 -11 -11 -11 -11 -11 -11 -11
-25 -25 -25 -24 -24 -23 -22 -23 -22 -23 -21 -21 -20 -20 -20 -19 -20 -19 -18 -18 -18 -18 -17 -17 -17 -17 -16 -16 -16 -16 -16 -16 -16 -15 -14 -13 -13 -9 -11 -12 -12 -12 -12 -12 -12
-26 -26 -25 -25 -25 -24 -24 -24 -23 -23 -23 -21 -21 -21 -20 -20 -20 -20 -18 -18 -18 -18 -18 -17 -17 -17 -17 -17 -17 -17 -17 -17 -16 -16 -14 -14 -14 -11 -11 -11 -12 -12 -13 -13 -13
-26 -26 -26 -26 -25 -25 -25 -24 -24 -23 -22 -22 -21 -21 -20 -20 -20 -20 -20 -19 -18 -18 -19 -18 -17 -17 -17 -17 -17 -17 -18 -18 -18 -17 -16 -16 -13 -12 -12 -13 -13 -13 -13 -13 -13
-26 -26 -26 -26 -26 -25 -26 -25 -23 -22 -22 -22 -22 -21 -21 -21 -21 -20 -20 -19 -19 -19 -19 -19 -18 -18 -17 -17 -18 -17 -17 -17 -18 -17 -17 -15 -14 -13 -13 -13 -14 -14 -13 -13 -13
-26 -26 -26 -26 -26 -25 -25 -25 -25 -23 -23 -22 -22 -22 -22 -21 -20 -20 -20 -20 -20 -19 -20 -19 -19 -19 -19 -18 -18 -18 -18 -18 -18 -17 -16 -15 -14 -13 -14 -14 -14 -14 -13 -14 -14
-27 -27 -26 -26 -26 -26 -26 -26 -25 -23 -24 -23 -22 -22 -22 -22 -21 -21 -21 -20 -20 -19 -19 -19 -19 -19 -19 -18 -18 -18 -18 -18 -18 -18 -17 -15 -14 -14 -14 -15 -14 -15 -15 -14 -14
-27 -26 -26 -26 -26 -26 -26 -26 -26 -25 -24 -24 -23 -23 -23 -22 -22 -22 -22 -21 -21 -21 -21 -21 -21 -20 -20 -19 -19 -19 -19 -20 -19 -17 -17 -17 -13 -14 -15 -15 -16 -16 -16 -16 -16
-26 -26 -27 -27 -26 -26 -26 -26 -26 -26 -25 -24 -23 -24 -23 -23 -23 -23 -22 -22 -22 -22 -22 -22 -21 -22 -21 -20 -19 -19 -19 -20 -20 -20 -18 -18 -13 -15 -15 -16 -17 -17 -17 -17 -17
-27 -27 -27 -27 -27 -27 -27 -27 -27 -27 -26 -25 -23 -24 -23 -24 -23 -23 -22 -22 -23 -22 -23 -23 -22 -22 -20 -19 -21 -21 -21 -21 -21 -21 -18 -18 -15 -15 -16 -17 -18 -19 -19 -19 -18
-27 -27 -27 -27 -27 -27 -27 -27 -27 -27 -26 -26 -26 -25 -23 -23 -23 -23 -23 -23 -23 -23 -23 -22 -22 -22 -21 -22 -22 -21 -21 -21 -21 -19 -20 -16 -17 -16 -17 -18 -19 -19 -19 -19 -19
-27 -27 -27 -27 -27 -27 -27 -27 -26 -26 -26 -26 -25 -26 -25 -24 -24 -24 -23 -23 -22 -23 -23 -23 -22 -22 -22 -22 -22 -22 -22 -21 -20 -20 -20 -18 -17 -17 -18 -19 -19 -19 -20 -20 -19
-27 -27 -27 -27 -27 -27 -28 -28 -28 -27 -26 -25 -25 -26 -25 -26 -25 -25 -24 -23 -23 -23 -23 -22 -22 -22 -22 -22 -22 -23 -21 -21 -21 -20 -20 -19 -17 -18 -18 -19 -19 -20 -20 -20 -20
Height
5667 5675 5682 5689 5697 5706 5713 5724 5732 5741 5749 5755 5762 5768 5775 5781 5787 5795 5801 5807 5812 5817 5823 5828 5831 5835 5838 5842 5845 5847 5848 5849 5854 5858 5859 5861 5864 5866 5868 5870 5872 5872 5873 5873 5874
5654 5663 5672 5680 5687 5695 5704 5712 5722 5731 5739 5747 5754 5760 5767 5773 5780 5787 5794 5799 5805 5811 5817 5823 5826 5830 5834 5837 5841 5843 5845 5843 5849 5854 5857 5857 5860 5862 5864 5866 5869 5871 5870 5871 5872
5643 5652 5661 5670 5678 5685 5693 5703 5712 5720 5728 5736 5744 5751 5759 5766 5773 5781 5785 5793 5798 5804 5811 5816 5821 5825 5829 5832 5835 5838 5839 5841 5843 5848 5852 5853 5854 5856 5859 5864 5865 5866 5867 5867 5868
5632 5641 5651 5660 5669 5676 5682 5692 5702 5710 5718 5727 5733 5741 5749 5758 5764 5772 5778 5785 5793 5799 5804 5809 5814 5819 5824 5826 5830 5833 5835 5836 5839 5843 5847 5850 5850 5852 5855 5859 5860 5861 5863 5863 5865
5621 5630 5640 5651 5657 5667 5676 5683 5690 5699 5707 5716 5724 5731 5739 5749 5757 5764 5772 5776 5782 5790 5797 5802 5807 5812 5817 5821 5824 5828 5830 5832 5833 5840 5842 5845 5846 5845 5851 5854 5855 5857 5858 5858 5861
5609 5619 5629 5641 5649 5657 5666 5674 5681 5689 5699 5706 5714 5722 5730 5739 5747 5754 5761 5767 5773 5779 5787 5794 5800 5805 5810 5814 5818 5823 5824 5827 5828 5832 5837 5838 5842 5842 5845 5848 5849 5852 5853 5854 5856
5598 5608 5619 5630 5641 5648 5656 5665 5673 5681 5688 5696 5704 5712 5722 5731 5738 5744 5752 5759 5765 5772 5778 5784 5790 5795 5802 5806 5811 5816 5817 5820 5823 5824 5827 5831 5834 5840 5837 5839 5842 5845 5848 5849 5851
5587 5597 5608 5621 5632 5642 5646 5655 5664 5672 5679 5686 5695 5704 5714 5720 5728 5736 5743 5750 5756 5762 5769 5776 5781 5785 5791 5797 5802 5807 5809 5811 5817 5820 5821 5823 5829 5836 5831 5832 5835 5837 5840 5842 5844
5578 5586 5597 5610 5621 5628 5638 5647 5655 5662 5667 5676 5687 5695 5703 5713 5721 5726 5733 5740 5745 5752 5759 5765 5770 5776 5783 5788 5792 5796 5800 5803 5810 5814 5814 5816 5819 5827 5826 5827 5828 5830 5833 5834 5836
5572 5577 5585 5597 5609 5619 5629 5638 5647 5653 5658 5666 5675 5687 5697 5707 5710 5717 5723 5730 5736 5743 5749 5754 5760 5766 5772 5778 5782 5790 5794 5798 5801 5808 5806 5807 5808 5818 5819 5819 5821 5824 5826 5828 5830
5564 5570 5576 5587 5599 5609 5620 5628 5637 5644 5649 5659 5672 5679 5688 5696 5701 5707 5714 5720 5727 5734 5740 5745 5751 5759 5768 5774 5775 5778 5781 5785 5788 5794 5796 5798 5801 5808 5813 5810 5813 5817 5821 5820 5822
5555 5562 5568 5577 5589 5599 5609 5617 5626 5637 5645 5652 5658 5667 5675 5685 5693 5698 5706 5713 5719 5727 5731 5737 5743 5751 5755 5760 5764 5768 5771 5776 5780 5783 5785 5787 5789 5795 5803 5804 5804 5807 5809 5812 5812
5548 5554 5560 5567 5578 5589 5600 5609 5619 5629 5637 5644 5648 5658 5667 5676 5683 5690 5698 5704 5711 5717 5723 5730 5738 5742 5746 5751 5755 5759 5763 5767 5769 5771 5773 5774 5777 5783 5791 5792 5796 5797 5801 5803 5803
5541 5546 5553 5559 5570 5583 5591 5602 5612 5622 5629 5635 5637 5647 5657 5665 5672 5678 5685 5694 5702 5709 5715 5719 5725 5731 5735 5741 5746 5750 5754 5756 5758 5759 5761 5763 5761 5775 5781 5784 5785 5788 5791 5794 5794
5535 5539 5546 5554 5565 5578 5589 5593 5604 5614 5616 5623 5627 5637 5648 5656 5663 5669 5676 5684 5693 5700 5707 5715 5719 5724 5728 5736 5737 5742 5744 5745 5746 5747 5748 5754 5752 5762 5772 5774 5777 5778 5779 5782 5783
5527 5533 5539 5549 5559 5567 5575 5587 5598 5604 5602 5611 5622 5630 5639 5646 5652 5659 5667 5676 5684 5690 5698 5701 5707 5712 5720 5723 5726 5730 5734 5735 5735 5737 5734 5744 5747 5746 5762 5767 5768 5769 5769 5771 5775
5520 5528 5535 5543 5552 5560 5568 5582 5587 5588 5599 5606 5614 5625 5634 5638 5644 5649 5659 5666 5674 5682 5688 5693 5699 5704 5710 5712 5715 5719 5722 5722 5725 5727 5727 5735 5736 5741 5744 5754 5757 5759 5760 5760 5762
5515 5522 5529 5537 5542 5552 5564 5574 5576 5584 5595 5598 5608 5617 5622 5630 5633 5639 5646 5655 5664 5670 5677 5681 5685 5693 5698 5703 5709 5711 5711 5713 5715 5714 5718 5718 5719 5730 5731 5741 5744 5746 5748 5749 5751
5509 5519 5527 5533 5541 5550 5558 5564 5567 5580 5589 5593 5601 5606 5612 5619 5627 5633 5637 5646 5654 5662 5668 5673 5677 5684 5687 5692 5694 5695 5696 5708 5703 5703 5703 5707 5713 5719 5723 5728 5732 5734 5737 5739 5739
5509 5517 5524 5531 5537 5544 5552 5554 5558 5568 5582 5586 5590 5599 5605 5613 5619 5623 5628 5638 5646 5653 5656 5660 5663 5668 5673 5674 5677 5682 5690 5688 5686 5689 5690 5696 5701 5709 5716 5717 5717 5723 5722 5723 5726
5507 5516 5522 5529 5535 5539 5543 5547 5554 5562 5574 5578 5585 5592 5597 5604 5611 5616 5624 5631 5638 5646 5647 5648 5652 5658 5659 5662 5670 5674 5674 5677 5678 5680 5682 5687 5694 5698 5703 5704 5703 5705 5708 5710 5710
5509 5517 5523 5528 5534 5538 5541 5542 5549 5556 5562 5568 5577 5582 5587 5594 5599 5606 5614 5624 5627 5632 5632 5641 5639 5643 5648 5653 5658 5659 5662 5663 5664 5670 5672 5672 5681 5690 5691 5690 5689 5688 5688 5693 5696
5511 5517 5522 5528 5533 5536 5537 5538 5543 5550 5553 5560 5566 5570 5578 5583 5591 5595 5603 5610 5614 5618 5624 5629 5627 5630 5633 5637 5642 5644 5650 5654 5655 5656 5660 5663 5678 5682 5678 5679 5675 5674 5675 5674 5676
5514 5518 5523 5528 5531 5533 5534 5536 5537 5542 5547 5550 5556 5561 5568 5573 5579 5587 5594 5599 5602 5607 5613 5615 5616 5617 5623 5634 5636 5637 5640 5644 5645 5643 5653 5653 5667 5664 5668 5668 5665 5661 5662 5662 5660
5514 5519 5522 5525 5526 5529 5531 5533 5532 5534 5538 5544 5550 5553 5557 5563 5569 5579 5584 5589 5595 5597 5602 5604 5606 5610 5616 5618 5620 5625 5627 5630 5630 5641 5634 5654 5650 5661 5657 5657 5654 5652 5652 5647 5648
5516 5519 5521 5524 5526 5528 5529 5530 5530 5530 5534 5541 5547 5542 5546 5557 5564 5566 5575 5580 5583 5589 5592 5596 5597 5600 5603 5608 5609 5609 5613 5619 5623 5627 5625 5638 5638 5652 5648 5641 5642 5642 5636 5637 5640
5517 5520 5522 5524 5526 5527 5527 5526 5527 5527 5530 5532 5532 5536 5545 5547 5548 5553 5561 5571 5572 5577 5583 5587 5588 5592 5593 5599 5597 5593 5605 5609 5613 5615 5619 5618 5634 5637 5634 5631 5632 5625 5624 5627 5625
Wind_Speed
64 70 66 69 71 69 63 67 64 59 53 53 57 61 65 60 53 49 43 42 40 38 34 37 35 35 35 34 33 32 34 34 31 27 25 23 20 19 19 20 20 20 19 18 18
69 64 71 68 70 70 70 64 64 65 60 55 53 56 61 63 63 52 50 47 43 42 39 36 38 37 37 35 34 34 36 37 34 29 27 26 23 22 22 22 20 20 21 21 21
65 68 63 67 68 70 71 65 61 64 64 62 58 53 53 58 64 65 57 50 48 45 43 42 40 38 37 38 37 35 37 39 36 30 27 27 27 26 23 21 21 22 23 23 23
65 64 65 60 67 62 65 71 60 62 63 61 62 59 54 51 54 62 64 58 50 47 45 43 42 41 40 39 39 38 38 38 37 34 30 28 28 29 27 23 24 23 23 24 23
66 66 66 62 70 71 58 61 69 57 59 59 61 59 61 56 52 52 65 58 54 48 47 45 44 43 42 41 40 39 40 39 40 37 35 32 32 33 29 26 27 26 25 26 24
63 66 66 64 61 64 70 57 58 60 58 63 61 60 60 60 57 53 51 60 60 59 50 49 47 45 44 44 43 40 41 41 41 40 38 37 35 35 33 31 31 31 29 30 27
62 64 65 65 64 62 59 69 54 59 58 57 57 60 59 58 59 55 52 51 53 59 58 56 50 49 47 46 46 43 44 43 42 42 41 41 40 34 38 38 35 33 32 32 33
53 64 64 65 62 47 60 54 67 57 57 60 56 58 58 59 57 56 54 49 50 51 55 59 58 54 51 51 49 47 47 48 45 44 44 44 42 36 42 42 40 37 36 35 36
35 58 64 65 67 69 63 63 61 61 59 56 66 64 58 54 54 56 56 52 50 49 49 56 59 60 57 55 54 53 53 52 47 45 47 49 48 42 45 46 45 42 39 39 39
27 45 62 64 67 68 65 62 56 62 54 54 56 61 62 55 52 52 54 54 51 53 49 51 59 60 60 61 60 54 51 52 51 49 52 54 55 48 49 51 50 46 44 42 42
32 30 53 63 62 65 66 65 56 60 59 52 56 60 59 59 56 55 52 52 54 52 53 51 51 60 51 47 52 54 57 58 58 54 57 57 57 54 50 54 54 51 46 47 46
31 36 35 59 55 60 61 65 61 59 60 58 57 54 57 61 56 57 54 54 52 51 49 52 52 48 46 44 48 54 57 57 56 56 58 59 60 58 52 52 54 53 49 48 50
27 35 37 44 56 56 56 59 61 57 54 49 56 58 58 54 58 56 54 50 48 49 50 49 49 47 47 47 46 45 48 50 52 55 58 61 62 59 53 53 52 53 50 46 49
27 34 38 35 55 50 56 53 55 58 51 60 67 60 56 60 60 59 57 56 52 49 47 50 51 50 50 52 51 54 47 46 48 52 54 57 64 57 52 51 51 49 48 45 46
31 32 36 36 48 47 44 40 51 52 53 59 62 62 61 43 50 59 62 60 56 53 51 50 48 46 45 45 47 45 48 49 47 50 54 54 59 59 48 48 46 47 47 47 47
36 33 37 37 52 53 45 51 44 49 61 64 55 56 60 67 52 49 55 64 58 58 57 56 55 53 52 51 49 50 50 48 50 53 59 54 55 66 48 43 44 45 46 46 46
37 35 37 37 39 66 53 52 45 48 49 53 52 54 50 48 55 49 50 47 52 61 62 59 59 54 52 54 54 57 57 56 56 54 61 57 56 62 57 45 43 43 44 45 45
37 37 37 37 39 59 60 55 54 50 28 43 55 47 53 63 65 62 59 60 61 63 58 56 62 63 60 55 53 54 54 54 55 62 63 58 61 57 55 47 44 45 44 45 45
38 37 35 36 38 48 51 61 59 61 29 29 51 54 45 46 53 53 48 47 48 47 53 59 59 57 57 56 56 57 59 52 57 62 64 68 66 60 56 50 46 45 44 45 47
36 33 30 32 36 42 56 68 50 66 41 25 44 49 51 51 55 62 60 52 45 46 48 50 52 54 55 59 60 59 53 54 58 61 65 67 65 64 55 52 51 47 49 49 49
30 27 28 29 32 38 44 65 68 73 40 33 32 36 43 52 50 53 57 55 52 56 55 58 60 58 59 60 57 54 53 52 51 54 56 59 58 60 62 61 61 57 53 50 50
22 22 25 27 27 28 31 42 62 66 61 40 28 33 42 51 52 49 45 40 41 36 40 42 50 52 55 54 53 53 52 51 54 54 53 55 58 52 51 54 59 62 60 52 48
17 19 21 23 20 21 20 33 44 66 60 64 43 29 35 47 49 42 44 48 51 47 44 37 40 44 50 52 53 55 54 53 52 51 52 52 52 45 47 46 47 50 54 56 59
14 16 18 17 18 19 19 23 40 53 67 64 64 48 34 44 48 44 38 38 43 51 47 45 45 48 48 43 40 42 44 44 45 49 50 53 48 50 44 40 43 44 44 47 51
17 15 15 15 17 19 20 21 26 40 56 60 65 66 60 48 34 46 42 38 41 40 43 47 47 45 50 48 47 48 47 44 46 44 50 44 46 42 44 42 43 45 47 50 52
14 15 14 13 12 15 19 26 29 36 47 56 67 67 75 69 55 45 36 50 46 44 44 44 45 46 44 44 47 49 49 50 51 49 51 47 47 37 41 47 47 48 50 49 49
8 7 7 7 7 8 7 7 10 26 45 61 67 66 69 64 70 73 59 37 40 41 40 46 50 49 49 43 47 53 47 47 43 45 47 51 45 44 48 48 47 48 50 50 51
Wind_Direction
222 223 223 226 220 226 227 225 224 223 224 229 232 231 220 216 220 221 215 221 217 221 212 219 215 216 216 217 219 223 233 233 233 235 241 242 237 234 232 232 230 237 240 239 237
221 222 223 224 227 221 225 228 224 225 222 225 227 233 232 220 218 217 217 222 220 222 219 222 219 217 218 217 219 224 231 239 234 231 233 239 240 235 235 234 235 238 244 247 243
225 218 222 224 226 226 221 224 228 225 226 223 224 226 228 232 225 222 215 224 221 220 220 219 223 218 220 219 220 223 229 236 240 230 224 229 238 239 235 235 240 240 246 249 247
224 224 220 221 224 225 231 222 226 227 226 228 229 223 224 224 230 230 225 213 224 223 221 221 222 224 221 222 222 223 229 236 240 238 231 226 234 244 245 244 245 248 248 246 247
222 224 222 220 227 225 225 229 224 226 229 230 228 231 225 225 226 227 227 222 219 225 225 224 223 224 226 226 226 227 230 235 243 244 242 239 238 245 245 247 251 252 254 249 241
221 220 224 222 224 228 222 226 231 224 228 229 229 227 232 228 224 227 225 227 226 218 221 226 225 226 228 228 230 230 233 235 240 245 245 246 244 247 251 247 246 250 249 253 245
221 220 220 221 223 227 230 222 225 226 227 226 228 227 230 232 228 228 223 224 227 230 225 221 225 226 227 230 230 232 235 235 236 243 245 246 243 248 255 253 250 252 253 248 247
218 220 218 217 220 208 226 224 223 224 227 226 227 226 228 230 230 228 228 229 227 225 229 230 226 228 228 229 231 233 235 238 237 240 246 250 249 250 255 256 258 260 258 250 237
222 217 219 215 215 220 221 226 226 224 226 226 226 226 227 228 228 230 231 233 229 226 226 228 228 228 228 232 232 232 235 239 239 243 247 248 250 251 253 257 258 258 257 255 252
228 219 216 216 215 218 220 226 229 223 224 227 227 230 229 227 228 228 229 232 232 229 231 231 227 227 230 230 234 238 240 242 245 244 248 250 252 250 254 257 257 258 260 256 254
223 224 218 215 215 217 217 221 221 227 218 226 229 226 225 227 228 230 229 228 232 235 232 233 237 232 235 237 238 241 240 241 242 244 248 252 254 255 255 257 259 261 260 259 254
229 219 222 214 212 215 217 219 222 221 225 226 220 219 222 224 226 229 230 230 230 232 234 237 238 237 236 238 240 240 242 244 248 249 249 251 253 256 255 257 261 258 257 256 254
233 221 216 219 210 211 216 219 222 222 224 227 226 227 222 221 224 226 227 228 230 229 231 236 241 239 238 239 241 244 247 249 250 251 252 252 251 254 255 254 256 259 258 255 254
238 222 216 217 208 207 211 215 220 224 219 222 231 228 225 225 225 226 226 226 227 228 228 230 234 237 242 241 244 244 250 251 251 251 252 254 254 252 256 255 255 256 258 255 250
232 220 214 212 201 189 197 207 215 214 221 219 228 231 226 223 222 226 229 227 231 231 231 233 232 235 241 243 245 248 246 251 252 254 253 252 258 252 253 257 255 253 252 249 248
223 217 213 211 198 190 187 205 212 210 223 223 224 228 229 230 230 229 226 228 231 233 232 234 234 237 238 241 243 245 248 252 254 255 255 254 256 252 253 253 253 255 256 251 248
208 210 210 208 207 206 211 196 208 214 224 229 228 222 212 217 218 220 222 226 232 235 234 237 240 243 245 245 245 247 248 250 252 256 259 260 259 257 259 253 251 250 252 255 255
206 203 206 208 204 204 205 192 206 206 202 229 227 225 223 221 224 233 241 242 242 238 237 236 239 241 245 248 252 255 256 254 255 253 257 258 255 253 259 260 257 252 252 253 253
202 204 207 207 203 207 199 197 211 206 197 217 218 222 212 214 222 221 228 233 231 236 236 239 243 245 247 249 249 251 251 257 257 256 257 254 253 254 259 263 264 264 261 258 256
197 201 206 207 209 207 206 210 224 204 202 200 208 222 230 220 219 224 225 223 223 226 234 241 245 246 247 247 248 251 253 252 253 253 256 257 257 257 260 265 267 263 262 261 260
186 196 200 204 209 213 215 219 222 215 198 184 209 225 233 230 234 235 238 240 244 245 250 252 251 248 247 247 250 251 253 254 257 257 259 261 259 260 259 262 267 268 265 263 262
174 193 196 200 210 222 236 237 226 223 217 206 181 206 221 226 230 235 233 229 230 231 240 245 245 244 246 246 246 247 247 249 251 254 257 258 253 262 266 265 263 264 266 263 262
167 185 193 198 209 222 241 236 228 223 226 217 197 194 216 225 224 231 230 231 233 232 232 239 236 239 239 240 240 242 245 247 249 251 253 258 257 262 266 267 266 266 266 268 268
168 177 189 208 221 220 225 227 235 230 231 231 220 217 201 218 223 216 211 217 225 226 230 232 237 237 240 247 251 247 249 251 253 253 253 254 255 257 261 264 266 267 270 270 272
159 176 197 215 218 225 228 232 227 232 232 236 238 238 214 206 197 212 220 217 222 220 223 230 235 240 240 242 246 246 247 248 249 251 250 256 253 251 259 262 265 270 270 268 270
174 189 208 222 223 241 256 248 237 241 237 238 237 242 238 234 229 228 216 224 219 229 229 224 232 234 236 240 244 249 252 252 253 252 254 253 254 260 257 257 257 260 264 266 269
194 204 208 219 240 254 262 269 258 237 232 240 239 246 246 251 247 245 245 221 211 218 226 236 239 240 237 241 248 247 247 256 260 259 261 256 259 251 254 263 266 266 266 268 270